Thunder Bay, Ontario

10:18 AM EDT on August 16, 2017 (GMT -0400)
Thunder Bay

Weather History for CYQT - August, 2014

Change the Weather History Date:

Saturday, August 30, 2014

  Actual Average Record
Temperature  
Mean Temperature 61 °F -  
Max Temperature 68 °F 25 °F 87 °F (2010)
Min Temperature 54 °F 16 °F 35 °F (1999)
Degree Days  
Heating Degree Days 4    
Growing Degree Days 11 (Base 50)    
Moisture  
Dew Point 57 °F    
Average Humidity 88    
Maximum Humidity 100    
Minimum Humidity 60    
Precipitation  
Precipitation 0.00 in 0.02 in - ()
Sea Level Pressure  
Sea Level Pressure 29.85 in    
Wind  
Wind Speed 3 mph ()    
Max Wind Speed 12 mph    
Max Gust Speed -    
Visibility 13.6 miles    
Events Fog    
Averages and records for this station are not official NWS values.
T = Trace of Precipitation, MM = Missing Value Source: Averaged Metar Reports

Daily Weather History Graph

Daily Weather History Graph

Search for Another Location

Airport or City:

Trip Planner

Search our weather history database for the weather conditions in past years. The results will help you decide how hot, cold, wet, or windy it might be!

Date:

Astronomy

Aug. 30, 2014 Rise Set
Actual Time 7:12 AM EDT 8:42 PM EDT
Civil Twilight 6:39 AM EDT 9:15 PM EDT
Nautical Twilight 5:59 AM EDT 9:54 PM EDT
Astronomical Twilight 5:16 AM EDT 10:37 PM EDT
Moon 12:25 PM EDT (8/30) 10:50 PM EDT (8/30)
Length of Visible Light 14h 35m
Length of Day
13h 30m
Waxing Crescent, 23% of the Moon is Illuminated
Aug 30
Waxing Crescent
Sep 2
First Quarter
Sep 8
Full
Sep 15
Last Quarter
Sep 24
New

Hourly Weather History & Observations

Time (EDT) Temp. Dew Point Humidity Pressure Visibility Wind Dir Wind Speed Gust Speed Precip Events Conditions
12:00 AM 59.0 °F 57.2 °F 94% 29.81 in 15.0 mi SW 2.3 mph - N/A   Overcast
1:13 AM 57.2 °F 57.2 °F 100% 29.80 in 8.0 mi SW 2.3 mph - N/A   Overcast
2:00 AM 58 °F 57 °F 97% 29.79 in 1 mi SSW 2.3 mph - -   Mist
2:00 AM 57.2 °F 57.2 °F 100% 29.79 in 8.0 mi SW 2.3 mph - N/A Fog Patches of Fog
2:22 AM 57.2 °F 57.2 °F 100% 29.80 in 0.5 mi WSW 3.5 mph - N/A Fog Fog
2:35 AM 57.2 °F 57.2 °F 100% 29.80 in 0.2 mi WNW 4.6 mph - N/A Fog Fog
3:00 AM 57.2 °F 55.4 °F 94% 29.81 in 0.2 mi WSW 2.3 mph - N/A Fog Fog
3:16 AM 57.2 °F 55.4 °F 94% 29.81 in 0.5 mi WSW 2.3 mph - N/A Fog Fog
3:45 AM 55.4 °F 55.4 °F 100% 29.82 in 0.5 mi West 2.3 mph - N/A Fog Fog
4:00 AM 55.4 °F 55.4 °F 100% 29.82 in 5.0 mi WSW 4.6 mph - N/A Fog Mostly Cloudy
5:00 AM 55.4 °F 55.4 °F 100% 29.81 in 15.0 mi SW 2.3 mph - N/A Fog Mostly Cloudy
6:00 AM 57.2 °F 55.4 °F 94% 29.81 in 15.0 mi Variable 2.3 mph - N/A Fog Mostly Cloudy
7:00 AM 57.2 °F 57.2 °F 100% 29.82 in 20.0 mi SW 2.3 mph - N/A   Mostly Cloudy
7:11 AM 57.2 °F 57.2 °F 100% 29.83 in 20.0 mi WSW 2.3 mph - N/A   Mostly Cloudy
8:00 AM 58 °F 58 °F 100% 29.85 in 10 mi West 1.2 mph - -   Overcast
8:00 AM 59.0 °F 57.2 °F 94% 29.84 in 20.0 mi Calm Calm - N/A   Overcast
9:00 AM 59.0 °F 59.0 °F 100% 29.86 in 15.0 mi Calm Calm - N/A   Overcast
10:00 AM 60.8 °F 59.0 °F 94% 29.86 in 15.0 mi North 4.6 mph - N/A   Overcast
11:00 AM 62.6 °F 59.0 °F 88% 29.86 in 20.0 mi NNE 5.8 mph - N/A   Overcast
12:00 PM 64.4 °F 59.0 °F 83% 29.88 in 20.0 mi NE 9.2 mph - N/A   Mostly Cloudy
1:00 PM 64.4 °F 59.0 °F 83% 29.87 in 20.0 mi NNE 10.4 mph - N/A   Mostly Cloudy
2:00 PM 68 °F 57 °F 60% 29.87 in 10 mi ENE 9.2 mph - -  
2:00 PM 68.0 °F 57.2 °F 68% 29.87 in 20.0 mi ENE 11.5 mph - N/A   Mostly Cloudy
3:00 PM 68.0 °F 57.2 °F 68% 29.88 in 20.0 mi ENE 11.5 mph - N/A   Overcast
4:00 PM 66.2 °F 57.2 °F 73% 29.88 in 20.0 mi North 3.5 mph - N/A   Overcast
5:00 PM 66.2 °F 57.2 °F 73% 29.88 in 20.0 mi NNE 4.6 mph - N/A   Mostly Cloudy
6:00 PM 64.4 °F 57.2 °F 77% 29.89 in 20.0 mi Variable 2.3 mph - N/A   Overcast
7:00 PM 64.4 °F 57.2 °F 77% 29.89 in 20.0 mi North 2.3 mph - N/A   Overcast
8:00 PM 64 °F 57 °F 71% 29.90 in 10 mi NNW 1.2 mph - -   Overcast
8:00 PM 64.4 °F 57.2 °F 77% 29.90 in 20.0 mi Calm Calm - N/A   Mostly Cloudy
9:00 PM 62.6 °F 55.4 °F 77% 29.91 in 20.0 mi Variable 3.5 mph - N/A   Mostly Cloudy
10:00 PM 60.8 °F 55.4 °F 82% 29.92 in 20.0 mi Calm Calm - N/A   Mostly Cloudy
11:00 PM 57.2 °F 55.4 °F 94% 29.92 in 20.0 mi West 3.5 mph - N/A   Mostly Cloudy